Wetbulb
51.66 52.11 52.25 52.16 53.02 50.57 47.35 49.38 45.93 49.34 52.46 54.21 56.81 56.92 59.41 61.45 63.18 64.06 64.78 65.53 64.62 66.28 68.24 69.36 69.47 68.53 70.35 72.43 72.18 73.44 71.04 72.93 71.88 74.52 75.03 75.16 75.29 75.77 75.90 75.83 75.14 75.76 75.51 74.87
48.13 50.17 50.74 50.48 52.80 53.66 54.33 53.81 53.94 53.91 51.92 57.66 57.71 59.39 59.80 60.48 61.66 62.14 63.77 65.04 65.67 65.94 66.25 66.99 68.32 69.01 69.49 71.27 72.02 71.95 71.39 70.07 70.13 70.42 73.51 74.36 74.71 75.29 75.74 75.92 75.64 74.71 74.24 74.81
44.90 47.82 48.11 45.11 50.54 52.58 53.23 54.53 55.18 52.58 53.95 56.36 57.17 57.74 58.98 60.15 60.79 60.91 62.00 63.79 64.67 65.65 66.09 66.83 67.56 68.38 68.69 69.45 70.67 70.71 70.70 70.21 69.13 68.83 69.21 71.67 72.87 73.65 74.26 75.11 74.79 74.51 73.39 73.20
44.85 46.53 39.92 48.80 53.91 55.20 53.91 54.13 55.07 55.75 57.21 58.40 57.64 58.23 58.61 59.71 59.39 60.35 61.47 62.24 63.89 65.20 66.09 66.74 67.93 68.76 69.53 70.51 69.90 70.21 70.12 69.12 70.09 68.67 67.91 68.56 69.07 70.09 71.79 71.65 71.39 72.29 71.28 70.61
43.10 44.14 46.20 48.64 50.98 51.59 51.35 52.78 57.58 57.61 57.19 58.47 59.44 59.14 57.75 58.64 59.01 58.93 59.71 60.71 63.53 65.91 65.29 65.29 65.63 66.44 66.78 67.52 68.50 68.16 67.92 67.97 67.41 69.11 66.09 66.93 67.11 68.81 68.67 68.88 67.79 68.72 68.05 68.36
44.79 42.26 39.91 47.94 52.11 54.63 54.28 48.37 58.61 59.49 57.81 58.51 59.33 53.93 57.99 58.55 59.11 58.23 58.33 58.80 60.00 62.21 63.94 64.83 66.31 66.34 65.19 64.69 63.40 62.69 64.69 65.78 65.87 66.21 65.80 65.85 65.30 63.76 64.47 65.25 62.38 63.69 61.74 61.41
44.47 43.74 45.66 51.16 53.42 54.64 46.79 48.84 59.35 61.22 60.79 59.91 57.21 57.47 60.74 59.81 59.35 59.68 58.52 58.55 59.29 58.88 59.11 60.47 62.92 63.35 61.67 60.89 60.95 61.90 62.72 62.71 64.97 64.63 64.13 63.59 62.59 62.48 61.43 60.83 61.13 60.74 59.60 58.01
44.24 43.45 40.32 53.26 53.66 49.36 53.31 56.00 59.32 60.56 60.35 58.54 59.47 59.26 59.27 58.20 58.77 59.88 59.57 59.19 58.87 59.00 58.28 59.30 60.49 59.77 57.97 58.31 59.55 60.31 59.90 60.99 60.20 62.78 63.08 62.61 62.31 61.52 60.31 59.81 59.57 58.30 58.07 58.54
46.82 46.91 50.00 54.27 54.54 55.42 55.49 56.80 58.62 60.46 60.71 60.53 59.41 58.32 56.97 57.11 58.98 59.06 58.95 58.39 59.29 59.70 60.31 59.37 59.42 60.22 58.04 58.26 58.45 58.53 58.72 58.13 57.95 58.71 59.54 61.92 61.99 61.31 60.81 60.97 59.67 59.88 58.08 56.98
48.65 49.94 52.01 53.78 54.76 55.43 56.61 56.69 57.94 61.97 61.21 60.54 58.99 58.29 57.75 58.38 58.81 58.76 58.87 57.98 58.99 60.01 59.56 58.66 59.05 58.52 58.27 57.79 56.59 55.66 54.22 54.24 53.14 56.08 56.01 56.94 56.34 60.60 61.10 60.75 60.14 59.22 56.30 53.04
49.50 51.13 51.44 54.49 55.61 56.64 56.22 57.08 58.87 62.11 61.51 60.46 59.18 57.21 56.64 55.62 55.74 55.78 55.49 55.78 57.16 58.37 57.92 57.06 57.57 58.45 59.08 57.46 56.33 54.29 53.38 52.99 50.93 50.56 52.14 50.62 47.75 46.88 52.07 50.41 52.66 56.54 54.37 51.20
47.55 54.66 54.77 53.45 57.10 57.84 56.78 58.25 60.92 61.65 60.52 60.58 59.99 58.27 58.00 57.73 57.98 57.54 56.47 56.67 56.42 55.11 54.82 55.22 56.39 56.59 57.22 58.96 58.24 55.91 53.57 52.10 50.07 49.86 48.91 48.93 47.63 47.00 44.46 43.75 42.49 41.19 41.81 47.04
53.15 52.39 54.67 54.83 55.12 57.61 57.00 60.38 61.92 62.09 61.97 59.97 59.74 59.06 58.77 57.72 57.70 54.78 56.50 56.81 57.07 56.79 56.44 56.77 57.17 56.56 57.49 58.50 57.61 55.38 53.40 51.52 50.01 50.95 52.09 51.73 52.02 51.79 50.35 44.64 42.63 41.11 40.60 40.97
53.92 54.06 53.65 55.17 54.99 56.93 57.22 58.23 60.55 61.87 61.69 61.07 59.83 59.44 58.63 57.91 55.68 56.05 55.46 55.75 55.95 55.89 55.45 55.81 56.06 56.18 56.73 57.08 57.26 56.37 54.58 49.73 52.49 51.68 50.28 50.61 51.05 49.50 50.07 48.91 48.11 49.71 44.36 42.90
53.06 54.75 54.73 57.41 56.78 56.91 58.40 59.35 59.26 60.15 59.99 59.21 59.66 58.93 58.59 57.64 56.94 56.76 56.27 55.13 54.55 54.14 54.49 54.82 55.09 55.78 56.52 56.82 56.11 56.35 56.41 55.56 55.22 54.67 52.93 49.47 48.58 48.80 48.54 48.68 49.35 50.66 51.50 47.51
55.29 54.55 55.04 55.42 56.19 56.56 57.03 59.24 58.96 59.73 60.03 59.51 59.19 58.89 58.96 59.10 58.15 57.25 56.04 54.93 53.57 52.25 53.26 53.79 54.29 55.81 56.59 56.74 56.43 55.82 55.32 53.04 54.58 55.90 55.49 55.43 51.79 50.22 49.46 49.72 49.45 50.87 51.26 51.37
53.34 53.10 53.99 54.29 54.55 55.55 56.51 59.37 60.80 60.54 60.17 59.83 59.79 59.75 58.70 58.01 57.34 56.67 56.56 55.93 55.15 54.36 54.43 54.62 54.60 55.04 56.10 56.71 56.59 56.62 55.63 54.62 54.40 54.70 54.74 54.58 55.07 53.58 53.85 53.87 52.43 51.94 52.04 51.54
57.72 57.72 57.89 57.27 55.95 55.44 56.30 57.34 59.54 60.95 60.42 61.03 60.49 59.65 58.95 57.87 57.97 58.14 57.91 57.28 56.36 55.91 56.48 55.98 55.83 55.88 55.67 56.48 56.75 56.55 56.45 56.21 54.91 54.49 54.57 54.19 54.32 55.32 55.02 54.66 54.06 53.61 52.14 50.98
57.08 57.17 57.20 56.90 57.23 57.34 57.12 57.62 58.46 61.28 61.88 61.40 60.21 59.66 59.85 59.42 59.70 59.47 58.81 57.73 57.13 56.92 58.38 58.73 55.80 54.71 55.77 55.84 55.97 55.92 55.72 56.15 55.30 54.82 54.09 51.13 52.23 53.47 53.23 53.17 53.46 54.03 52.87 51.16
56.46 57.15 57.39 57.19 57.21 57.82 57.57 59.04 59.55 60.49 61.39 61.50 60.94 60.21 59.45 59.53 59.61 59.27 59.00 58.80 59.65 60.10 60.57 60.32 58.67 58.35 58.47 57.45 54.93 55.87 55.62 56.43 55.43 54.50 54.12 53.33 53.18 53.23 53.35 48.16 52.42 53.85 54.21 53.67
56.57 56.96 57.01 56.80 56.73 57.66 58.71 59.42 59.72 59.51 60.62 61.16 60.43 60.00 60.02 60.12 60.17 60.04 58.91 57.31 58.17 58.84 59.40 58.00 59.90 60.21 59.96 59.28 57.56 58.24 58.34 57.07 55.90 54.27 53.70 53.23 53.26 53.04 53.53 53.03 53.45 53.87 53.06 53.69
55.50 55.75 56.37 56.68 56.46 56.48 57.51 58.85 59.92 59.78 60.04 59.99 59.93 59.12 57.89 56.96 57.28 57.21 57.47 56.74 56.68 49.77 56.05 58.27 59.16 58.53 59.71 57.15 59.29 59.21 58.82 58.09 57.12 55.26 53.11 52.56 52.35 53.30 52.18 51.41 52.00 50.58 51.20 52.41
55.37 55.61 56.17 56.02 56.07 56.71 56.99 58.03 58.63 58.87 57.88 57.40 57.08 56.95 56.54 55.87 56.05 54.88 54.17 55.13 56.39 53.10 57.71 57.63 55.55 54.01 54.71 59.12 59.55 58.85 58.46 57.74 57.56 56.91 55.75 54.43 52.73 50.74 49.30 49.97 49.77 50.09 53.56 53.74
55.19 55.17 55.71 55.83 56.16 55.63 55.31 56.29 57.41 57.79 57.63 57.33 57.14 57.31 55.98 54.44 54.18 55.65 55.62 51.38 48.38 50.61 56.98 57.12 55.39 53.49 54.46 58.87 58.58 58.41 58.04 57.84 57.25 56.44 55.31 48.44 53.59 51.70 50.87 51.65 51.19 53.24 53.20 51.75
54.88 54.68 54.36 54.26 55.12 55.91 57.34 55.42 54.94 54.94 55.10 55.56 55.69 54.99 54.32 54.57 54.46 54.28 55.13 55.01 49.21 53.73 56.37 51.75 52.18 52.01 57.45 57.65 57.66 57.80 57.19 57.32 57.21 57.00 56.41 55.98 55.73 55.25 55.37 54.81 53.85 54.44 54.02 53.37
53.27 53.18 54.24 55.32 55.94 55.94 54.98 54.07 54.26 54.31 54.46 53.71 51.92 50.74 51.36 54.66 54.49 54.21 54.98 53.14 54.80 51.49 54.75 54.66 55.09 55.02 55.24 56.07 56.71 57.40 57.31 56.77 55.68 55.51 55.22 56.15 55.85 55.49 55.42 55.48 55.30 54.76 54.62 54.64
53.18 49.53 53.03 52.92 53.94 54.59 54.12 53.91 53.51 53.25 51.71 51.84 52.19 52.64 54.02 53.98 53.84 53.37 50.95 54.39 54.24 53.89 53.67 53.46 53.58 52.21 53.83 53.80 54.06 55.14 55.85 56.26 51.48 56.41 56.05 55.80 55.28 55.29 54.92 54.81 54.77 54.69 54.22 53.49
MSLP
1009.82 1009.58 1009.92 1010.54 1010.13 1009.80 1009.71 1010.17 1010.35 1010.66 1011.80 1013.28 1013.94 1014.31 1014.04 1013.70 1013.32 1012.90 1012.61 1012.73 1013.03 1013.45 1013.65 1014.13 1014.60 1014.91 1015.12 1015.35 1015.61 1015.90 1016.32 1016.65 1016.95 1017.01 1017.35 1017.65 1018.00 1018.25 1018.37 1018.52 1018.45 1018.61 1018.68 1018.96
1010.52 1010.51 1010.66 1010.37 1010.07 1010.05 1010.33 1010.78 1011.31 1011.72 1012.93 1013.91 1014.62 1014.79 1014.60 1014.48 1014.23 1013.97 1013.78 1013.62 1013.61 1013.82 1013.85 1013.94 1014.36 1014.64 1015.05 1015.26 1015.76 1016.12 1016.38 1016.52 1016.81 1017.12 1017.32 1017.46 1017.76 1017.90 1018.17 1018.26 1018.39 1018.77 1018.81 1018.96
1010.94 1011.23 1010.88 1011.23 1010.49 1010.22 1010.76 1011.46 1011.61 1012.03 1013.47 1014.61 1015.01 1015.36 1015.40 1015.35 1015.11 1014.94 1014.84 1014.64 1014.52 1014.48 1014.53 1014.59 1014.83 1015.19 1015.44 1015.69 1015.79 1016.16 1016.61 1016.98 1017.26 1017.31 1017.56 1017.78 1017.82 1017.95 1018.14 1018.15 1018.36 1018.67 1019.04 1019.15
1011.39 1011.59 1011.17 1011.46 1011.26 1011.07 1010.66 1012.03 1012.44 1012.76 1013.97 1014.72 1015.32 1015.98 1016.31 1016.39 1016.30 1016.04 1015.99 1015.72 1015.40 1015.33 1015.31 1015.42 1015.60 1015.79 1015.88 1015.99 1016.08 1016.06 1016.41 1016.88 1017.29 1018.02 1017.75 1017.98 1018.25 1018.34 1018.46 1018.73 1018.92 1018.76 1019.15 1019.41
1011.80 1011.42 1011.66 1011.57 1011.50 1011.44 1011.18 1012.14 1013.07 1013.17 1014.22 1014.76 1015.37 1015.89 1016.58 1016.99 1017.25 1017.24 1017.12 1016.89 1016.54 1016.23 1016.29 1016.29 1016.25 1016.34 1016.46 1016.81 1016.84 1016.91 1017.14 1017.40 1017.55 1017.70 1018.12 1017.64 1018.43 1018.68 1018.89 1019.10 1019.55 1019.61 1019.47 1019.90
1011.72 1011.47 1011.42 1011.63 1011.86 1011.88 1011.72 1012.23 1012.92 1013.31 1014.27 1014.60 1015.02 1015.31 1016.40 1017.22 1017.58 1017.76 1017.86 1017.78 1017.54 1017.33 1017.06 1016.92 1016.94 1017.01 1017.12 1017.33 1017.45 1017.59 1017.80 1018.00 1018.06 1017.72 1018.08 1018.56 1018.93 1019.28 1019.69 1019.87 1020.33 1020.55 1020.36 1020.36
1011.86 1011.74 1011.92 1012.18 1012.29 1012.27 1012.22 1013.26 1013.07 1013.23 1014.05 1014.53 1014.76 1015.72 1016.18 1017.14 1017.62 1018.00 1018.23 1018.33 1018.29 1018.16 1018.08 1017.93 1017.81 1017.82 1018.09 1018.23 1018.42 1018.54 1018.60 1018.59 1018.67 1018.99 1018.53 1018.76 1019.02 1019.36 1019.87 1020.43 1020.62 1020.96 1020.82 1021.17
1012.62 1012.25 1012.50 1012.79 1012.70 1012.64 1012.82 1013.05 1013.20 1013.58 1013.99 1014.46 1015.11 1016.00 1016.79 1017.25 1017.61 1017.96 1018.42 1018.47 1018.66 1018.58 1018.64 1018.66 1018.55 1018.67 1018.95 1019.16 1019.31 1019.30 1019.51 1019.39 1019.46 1019.16 1019.35 1019.41 1019.70 1020.12 1020.40 1020.62 1020.87 1021.29 1021.34 1021.35
1012.96 1012.56 1012.90 1013.11 1013.17 1013.34 1013.45 1013.35 1013.56 1013.68 1014.23 1014.69 1015.36 1016.22 1017.08 1017.60 1017.91 1018.18 1018.55 1018.70 1018.81 1018.82 1018.93 1019.15 1019.15 1019.22 1019.37 1019.72 1019.82 1019.79 1019.86 1019.95 1020.12 1020.29 1020.25 1020.02 1020.13 1020.43 1020.62 1020.90 1021.21 1021.49 1021.41 1021.34
1013.09 1012.93 1012.90 1013.15 1013.45 1013.56 1013.62 1013.64 1013.84 1014.07 1014.57 1015.13 1015.72 1016.54 1017.24 1017.76 1018.03 1018.45 1018.80 1019.03 1019.09 1019.09 1019.31 1019.66 1019.76 1019.80 1019.96 1020.20 1020.19 1020.28 1020.32 1020.43 1020.74 1020.70 1020.71 1020.91 1020.88 1021.03 1021.03 1021.23 1021.34 1021.68 1021.38 1021.54
1012.58 1012.63 1013.14 1013.10 1013.22 1013.26 1013.46 1013.70 1013.98 1014.26 1014.72 1015.22 1015.92 1016.78 1017.32 1017.86 1018.41 1018.86 1019.28 1019.63 1019.63 1019.56 1019.78 1020.08 1020.20 1020.21 1020.35 1020.50 1020.68 1020.82 1020.99 1021.23 1021.36 1021.52 1021.57 1021.86 1022.09 1022.75 1022.63 1022.93 1022.54 1022.16 1022.24 1022.07
1011.44 1011.59 1011.96 1012.18 1012.47 1013.00 1013.24 1013.38 1013.80 1014.21 1014.86 1015.54 1015.87 1016.55 1017.37 1017.92 1018.49 1018.84 1019.12 1019.43 1019.72 1020.07 1020.21 1020.39 1020.45 1020.56 1020.72 1020.67 1020.68 1020.89 1021.15 1021.57 1021.89 1021.94 1022.20 1022.35 1022.66 1023.24 1023.68 1023.52 1023.33 1023.08 1022.94 1022.75
1011.39 1011.76 1012.14 1012.48 1012.62 1012.82 1013.12 1013.39 1013.77 1014.11 1014.55 1015.43 1016.34 1016.76 1017.25 1017.85 1018.50 1019.03 1019.26 1019.41 1019.58 1019.86 1020.15 1020.39 1020.59 1020.82 1021.04 1020.98 1020.96 1021.14 1021.29 1021.69 1021.98 1022.11 1022.17 1022.36 1022.62 1023.06 1023.48 1024.05 1024.04 1023.95 1023.84 1023.82
1011.79 1012.01 1012.37 1012.43 1012.28 1012.82 1013.14 1013.54 1014.01 1014.40 1014.80 1015.16 1015.96 1016.71 1017.29 1017.87 1018.52 1018.85 1019.09 1019.48 1019.88 1020.22 1020.58 1020.76 1020.85 1021.05 1021.36 1021.41 1021.48 1021.66 1021.68 1022.01 1021.79 1021.90 1022.19 1022.33 1022.74 1023.04 1023.20 1023.36 1023.56 1024.01 1024.38 1024.42
1011.65 1011.82 1011.67 1011.80 1012.43 1012.86 1013.19 1013.55 1013.83 1014.33 1015.05 1015.69 1016.17 1016.64 1017.16 1017.73 1018.17 1018.57 1019.19 1019.67 1019.95 1020.34 1020.67 1021.02 1021.15 1021.34 1021.61 1021.64 1021.70 1021.74 1021.74 1021.82 1021.99 1022.20 1022.39 1022.68 1022.91 1022.93 1022.98 1023.39 1023.45 1023.64 1023.90 1024.45
1011.43 1011.76 1011.81 1011.92 1012.37 1012.81 1013.13 1013.36 1013.62 1014.10 1014.66 1015.46 1016.07 1016.64 1017.07 1017.50 1018.04 1018.53 1019.17 1019.71 1019.82 1020.12 1020.55 1020.92 1021.11 1021.33 1021.60 1021.66 1021.82 1021.94 1022.10 1022.41 1022.39 1022.32 1022.40 1022.50 1022.56 1022.65 1022.87 1023.09 1023.20 1023.29 1023.68 1023.80
1011.05 1011.46 1011.59 1011.89 1012.35 1012.66 1012.83 1013.14 1013.42 1013.97 1014.61 1015.13 1015.75 1016.49 1017.11 1017.60 1018.14 1018.68 1019.20 1019.55 1019.85 1020.07 1020.30 1020.60 1020.79 1021.19 1021.40 1021.51 1021.60 1021.54 1021.67 1022.00 1022.21 1022.15 1022.20 1022.24 1022.23 1022.41 1022.53 1022.64 1022.82 1022.89 1023.07 1023.75
1010.23 1010.50 1010.90 1011.24 1011.87 1012.33 1012.79 1013.13 1013.57 1014.00 1014.40 1014.99 1015.74 1016.41 1016.95 1017.44 1017.84 1018.39 1018.94 1019.40 1019.80 1020.03 1020.05 1020.28 1020.56 1020.84 1021.10 1021.24 1021.32 1021.31 1021.32 1021.38 1021.57 1021.59 1021.79 1022.06 1022.01 1022.13 1022.28 1022.45 1022.58 1022.73 1023.02 1023.42
1010.39 1010.55 1010.95 1011.35 1011.77 1012.10 1012.45 1012.86 1013.23 1013.62 1014.31 1014.87 1015.48 1016.10 1016.80 1017.42 1017.86 1018.31 1018.77 1019.07 1019.31 1019.45 1019.48 1019.90 1020.26 1020.66 1020.69 1020.94 1021.13 1021.08 1021.05 1021.09 1021.20 1021.34 1021.52 1021.92 1022.02 1021.90 1021.92 1022.06 1022.16 1022.42 1022.66 1022.88
1010.29 1010.63 1010.95 1011.29 1011.78 1012.05 1012.38 1012.81 1013.26 1013.76 1014.25 1014.78 1015.40 1016.02 1016.67 1017.27 1017.81 1018.20 1018.58 1018.68 1018.80 1018.92 1019.36 1019.55 1019.87 1020.04 1020.24 1020.44 1020.84 1020.62 1020.61 1020.71 1020.75 1020.88 1021.18 1021.27 1021.41 1021.43 1021.47 1021.95 1021.79 1021.88 1022.10 1022.24
1010.02 1010.51 1010.89 1011.32 1011.65 1012.04 1012.39 1012.71 1013.08 1013.68 1014.35 1014.90 1015.37 1015.96 1016.51 1017.11 1017.58 1017.93 1018.25 1018.22 1018.69 1019.09 1019.35 1019.59 1019.59 1019.68 1019.87 1020.08 1020.33 1020.24 1020.23 1020.36 1020.44 1020.49 1020.70 1021.00 1021.27 1021.49 1021.52 1021.74 1021.83 1022.03 1022.22 1022.22
1010.09 1010.47 1010.87 1011.34 1011.76 1012.13 1012.53 1012.95 1013.36 1013.99 1014.48 1015.08 1015.62 1016.21 1016.69 1017.14 1017.61 1017.99 1018.20 1018.17 1018.50 1019.06 1019.05 1019.07 1019.23 1019.45 1019.58 1019.99 1019.97 1020.03 1020.15 1020.16 1020.20 1020.27 1020.57 1020.95 1021.12 1021.14 1021.37 1021.75 1021.40 1021.96 1022.31 1022.05
1010.12 1010.54 1010.98 1011.47 1011.81 1012.23 1012.85 1013.16 1013.59 1014.07 1014.59 1015.18 1015.65 1016.17 1016.56 1016.92 1017.26 1017.53 1017.91 1018.65 1018.78 1019.05 1018.87 1018.88 1019.17 1019.51 1019.67 1019.61 1019.69 1019.80 1019.90 1019.98 1019.99 1020.04 1020.31 1020.86 1021.18 1021.52 1021.73 1021.73 1021.79 1021.84 1021.70 1021.54
1010.20 1010.75 1011.16 1011.70 1012.17 1012.56 1013.05 1013.64 1013.98 1014.44 1014.87 1015.46 1015.90 1016.25 1016.55 1016.89 1017.42 1017.70 1018.02 1018.47 1018.79 1018.92 1018.66 1018.86 1019.12 1019.36 1019.47 1019.43 1019.52 1019.61 1019.67 1019.77 1019.98 1020.16 1020.37 1020.92 1020.96 1021.21 1021.51 1021.59 1021.65 1021.63 1021.42 1021.34
1010.20 1010.82 1011.34 1011.72 1012.02 1012.29 1012.93 1013.70 1014.34 1014.95 1015.37 1015.77 1016.23 1016.61 1017.12 1017.32 1017.28 1017.77 1018.11 1018.49 1018.80 1018.62 1018.78 1019.26 1019.41 1019.44 1019.26 1019.34 1019.47 1019.54 1019.52 1019.63 1019.69 1019.89 1020.04 1020.15 1020.32 1020.42 1020.60 1020.80 1020.94 1020.99 1021.00 1021.09
1010.31 1010.82 1011.16 1011.44 1011.63 1012.22 1012.92 1013.62 1013.85 1014.53 1015.07 1015.77 1016.58 1017.05 1017.24 1017.57 1017.86 1017.99 1018.27 1018.60 1018.65 1018.83 1018.82 1019.17 1019.29 1019.27 1019.30 1019.32 1019.40 1019.53 1019.57 1019.64 1019.84 1020.00 1020.01 1020.17 1020.27 1020.40 1020.49 1020.64 1020.72 1020.73 1020.68 1020.63
1010.50 1010.96 1011.39 1011.83 1012.23 1012.62 1012.99 1013.32 1013.81 1014.43 1015.27 1015.83 1016.47 1017.03 1017.09 1017.52 1017.78 1017.86 1018.16 1018.33 1018.48 1018.67 1018.89 1019.12 1019.27 1019.33 1019.37 1019.30 1019.35 1019.45 1019.58 1019.68 1019.80 1019.81 1019.98 1020.00 1020.14 1020.31 1020.24 1020.29 1020.40 1020.44 1020.51 1020.51
Wind_Speed
9 14 13 2 5 6 6 2 4 8 7 3 4 5 6 7 7 7 5 4 7 6 7 7 6 4 3 7 6 9 7 10 8 11 10 8 8 8 7 7 7 4 3 4
4 6 11 6 10 6 6 6 8 11 8 3 2 2 7 8 8 10 9 7 4 8 8 9 10 9 8 8 5 5 8 6 7 4 4 5 5 6 7 7 4 4 3 2
2 2 2 4 5 9 6 3 6 5 5 5 4 6 7 7 8 9 10 8 6 4 2 1 3 6 7 7 7 8 7 6 5 6 6 3 1 4 6 6 6 5 4 3
2 3 5 4 2 7 13 7 5 11 9 7 7 6 7 9 7 9 9 9 8 7 7 7 4 4 4 5 6 8 9 7 7 3 4 3 1 3 4 3 3 6 4 4
3 3 2 3 2 2 1 6 4 9 7 8 9 6 5 7 7 7 7 7 7 7 8 7 7 6 6 4 3 4 4 5 6 6 3 2 3 3 4 3 1 2 4 4
3 3 5 3 3 2 4 4 9 9 10 11 7 3 4 4 5 6 7 6 7 7 7 7 8 7 6 7 7 6 4 3 4 6 3 4 3 4 3 3 3 1 4 5
3 1 2 1 1 2 5 5 7 8 10 8 3 4 9 6 7 7 6 5 5 7 6 6 6 7 8 7 7 5 5 5 5 4 6 5 5 4 4 3 4 4 6 6
2 1 3 1 2 3 4 4 7 10 8 5 7 9 7 5 4 6 7 7 6 7 6 6 6 7 7 6 5 6 5 7 6 7 5 5 7 6 6 5 6 4 4 5
4 2 1 1 2 1 0 1 4 6 6 10 10 7 6 6 5 6 6 6 5 6 8 7 7 6 7 5 5 6 7 8 7 6 6 5 5 5 5 5 5 5 4 6
3 4 4 3 2 3 3 3 3 6 10 9 8 7 6 5 5 6 6 6 4 6 7 9 8 8 7 6 5 6 7 7 6 6 7 7 6 4 4 4 4 4 5 5
3 5 3 8 8 5 5 4 6 8 11 10 12 9 7 5 4 4 4 4 5 6 7 8 7 8 7 6 5 7 7 6 6 5 7 7 9 7 4 5 4 5 4 4
5 6 3 2 7 10 7 3 8 11 11 10 10 11 9 7 6 6 5 4 6 6 6 6 6 7 6 6 6 6 7 5 5 5 5 5 5 5 11 10 10 10 7 4
2 4 4 3 2 8 6 4 7 9 11 11 8 9 9 8 6 7 6 5 5 6 6 5 6 7 6 6 5 6 6 5 4 4 4 4 4 4 5 5 7 10 9 8
3 9 5 6 4 8 6 7 8 8 9 10 11 10 9 8 8 7 6 6 6 6 5 5 5 5 5 5 5 5 6 6 5 4 4 3 3 3 3 3 4 3 7 7
10 3 1 7 5 8 6 9 10 10 10 9 9 10 10 10 9 7 6 6 6 5 5 5 5 5 5 4 4 4 3 3 3 3 4 4 3 3 4 3 3 4 5 6
11 6 8 8 8 9 9 8 9 11 12 11 10 10 9 8 8 8 7 6 7 6 6 6 5 6 6 5 5 5 4 4 2 4 4 2 3 4 4 4 3 3 3 5
14 9 8 9 10 10 12 9 10 11 11 11 10 11 10 9 8 7 7 7 6 4 5 7 6 6 7 7 7 4 4 6 3 4 4 3 4 4 4 3 3 2 3 3
10 13 11 9 11 10 10 9 8 10 12 11 11 11 11 10 8 8 7 7 6 6 6 6 7 7 8 8 8 5 5 5 5 5 3 4 4 4 4 4 4 5 5 5
10 10 10 8 8 10 10 10 11 11 9 12 12 11 9 9 7 7 7 7 6 6 7 8 8 9 8 9 8 6 5 5 5 5 5 3 5 5 5 5 4 6 7 6
9 8 9 7 6 9 10 9 8 9 8 9 9 10 9 8 8 7 7 7 6 4 4 5 8 8 8 7 11 7 7 6 6 6 5 6 5 5 5 4 4 4 6 6
9 9 10 9 8 7 7 9 10 9 9 10 10 10 9 8 6 5 6 4 4 5 6 6 5 5 5 5 7 7 7 7 7 7 7 7 6 6 5 4 3 2 4 5
8 8 8 7 7 7 6 8 9 10 11 11 10 10 10 9 8 6 3 1 4 2 2 3 4 6 3 8 5 5 6 7 7 7 6 5 5 5 5 3 4 1 6 3
8 8 8 9 9 8 8 9 10 11 12 11 11 11 8 6 4 4 4 3 2 1 2 3 3 4 7 4 3 4 5 6 6 6 4 4 3 3 4 5 4 4 9 6
8 7 7 7 9 10 11 8 9 8 9 9 9 8 7 5 4 2 3 2 3 4 0 2 4 6 5 3 2 3 3 3 4 5 6 6 5 5 4 3 3 4 5 4
8 8 9 9 10 9 10 10 9 8 9 9 9 6 5 3 1 4 3 4 4 4 4 7 6 7 3 3 3 2 3 3 3 3 4 3 3 4 5 5 4 4 4 5
10 7 7 10 8 8 8 9 8 9 9 9 5 3 4 4 4 5 5 4 5 5 5 4 3 3 3 3 3 2 1 3 4 4 2 3 3 3 3 3 3 4 4 5
6 5 6 6 5 7 7 9 10 11 7 6 7 6 6 6 5 5 5 5 5 5 4 4 4 4 4 3 3 2 2 2 1 2 3 3 3 3 4 3 3 3 4 5
Wind_Direction
93 95 76 55 88 113 205 311 234 157 123 96 51 342 5 30 46 82 87 126 163 188 178 185 180 126 171 208 185 189 187 207 209 216 202 202 208 224 231 234 231 253 262 293
91 71 125 66 65 102 85 76 87 123 99 87 7 89 55 46 61 60 60 70 120 157 169 174 178 185 182 193 182 183 195 186 143 137 189 195 210 229 225 228 210 202 193 213
201 320 243 247 52 82 81 63 145 168 117 158 91 58 30 35 50 56 51 53 76 93 132 73 134 154 174 171 157 156 168 170 172 155 140 147 182 238 239 205 161 162 160 165
68 243 224 47 26 66 98 64 93 101 132 148 110 79 47 29 39 45 40 42 46 59 62 55 75 84 120 155 168 163 158 163 159 184 129 154 129 235 159 143 170 151 136 123
218 199 351 189 168 149 326 112 186 128 145 135 142 133 68 45 45 39 25 22 32 38 55 59 57 51 54 50 107 127 134 143 141 138 119 85 94 347 43 103 159 124 89 55
156 166 219 66 111 6 174 134 164 153 168 174 165 187 144 123 91 64 43 16 17 25 45 44 43 66 70 50 49 38 48 120 147 137 148 118 102 71 18 65 91 54 92 73
145 162 130 178 328 172 204 79 163 164 170 182 213 35 114 125 108 101 85 57 58 59 54 40 37 73 74 65 51 54 71 65 60 55 115 112 98 111 111 114 122 113 86 77
142 203 202 112 193 227 51 128 142 147 165 161 129 128 117 100 92 86 85 84 84 86 64 48 67 85 80 75 64 69 71 85 60 65 74 100 110 111 108 112 100 92 94 73
229 31 94 230 302 21 129 46 148 156 147 143 139 141 142 141 131 82 72 74 75 85 84 61 61 80 84 66 88 96 85 66 59 71 66 73 99 107 110 132 135 142 116 81
218 169 228 223 215 230 176 109 95 127 145 145 147 145 153 136 97 88 78 77 80 95 85 77 61 66 73 68 53 53 62 64 65 71 69 56 60 55 87 83 79 61 63 70
243 236 239 232 225 208 196 183 157 150 158 158 151 160 153 142 124 96 85 79 68 78 82 75 72 71 66 70 82 85 75 69 63 59 68 66 58 27 45 50 12 68 66 81
221 194 199 141 189 194 202 185 150 149 144 149 155 150 158 153 149 147 134 120 108 93 90 82 79 73 65 65 76 87 82 69 61 71 71 81 82 58 36 36 23 49 57 93
169 159 157 119 172 186 173 121 143 148 145 139 138 140 149 143 145 130 128 119 116 114 111 101 93 82 68 65 74 80 82 82 82 81 88 89 86 78 85 59 53 39 34 24
153 135 149 191 166 169 167 140 136 128 140 140 140 141 139 146 144 154 150 139 131 126 129 132 124 104 91 93 97 95 93 84 91 83 84 83 96 98 102 106 106 86 47 46
190 205 278 161 144 154 145 150 150 139 140 142 149 147 152 158 162 160 149 151 142 154 156 165 161 147 145 135 122 130 131 120 108 98 88 97 103 96 103 117 111 106 102 95
165 161 140 149 157 166 174 166 170 162 159 159 161 163 163 158 158 156 160 165 164 177 178 189 193 171 175 169 168 159 158 127 162 151 146 154 137 125 128 129 136 131 128 133
155 167 153 151 170 176 187 181 174 168 166 169 164 158 154 151 148 163 181 182 191 171 183 196 202 186 188 188 188 173 173 166 191 187 200 209 194 189 183 176 180 200 174 154
196 188 176 167 178 183 188 188 183 173 182 170 158 162 161 162 174 182 183 176 180 202 213 211 208 193 195 197 201 195 199 196 193 209 196 188 189 200 207 221 220 206 195 178
199 187 184 180 175 194 193 186 189 191 169 168 167 170 164 170 174 172 167 177 189 207 223 210 201 210 208 208 212 218 223 224 212 211 212 183 196 210 209 214 216 206 197 197
180 189 185 187 163 181 186 186 172 171 166 164 153 151 158 165 169 164 173 198 212 211 167 185 201 216 222 215 205 226 228 232 230 222 217 220 221 221 221 227 253 220 210 216
187 183 182 182 190 185 191 175 164 160 156 158 159 162 165 155 166 171 184 203 127 175 206 191 202 202 204 204 208 232 235 227 226 224 218 214 220 229 223 228 227 247 247 243
171 175 178 172 180 185 176 161 150 143 146 146 143 141 140 141 149 165 174 118 133 150 176 194 206 184 170 178 201 215 221 225 226 223 221 229 228 223 196 197 155 146 259 213
171 175 171 174 177 168 154 158 152 148 146 147 148 150 152 149 157 180 203 130 213 140 254 222 108 158 168 184 186 206 216 225 232 236 231 215 215 232 232 221 233 225 245 215
161 163 154 137 139 143 152 158 152 150 139 136 138 140 142 147 135 128 101 125 238 242 106 88 158 155 170 136 164 182 194 192 192 194 192 185 210 197 206 220 235 244 243 239
159 150 150 155 167 177 160 150 141 140 141 141 137 121 106 84 88 118 107 101 132 159 107 82 124 158 156 158 175 183 171 190 177 191 199 210 241 221 221 213 213 220 211 208
155 170 174 178 183 170 164 166 165 161 158 152 132 129 135 139 139 145 134 132 134 134 127 135 141 125 98 103 116 130 165 145 181 204 204 211 209 225 214 214 225 226 238 245
132 141 149 160 170 173 174 173 166 169 157 150 155 166 159 165 162 158 162 156 152 142 139 145 143 112 121 118 118 133 166 176 204 199 201 224 221 237 242 234 236 246 260 260